| time (UTC) | temp F | wind direction | speed MPH | gust MPH | rain 1hr in | rain 24hr in | rain mn in | humidity % | barometer mb |
| 20260505194503 | 53 | 355 | 4.0 | 7.0 | 0.00 | 0.00 | 0.00 | 65 | 1013.7 |
| 20260505193003 | 53 | 352 | 4.0 | 8.0 | 0.00 | 0.00 | 0.00 | 64 | 1013.6 |
| 20260505191504 | 53 | 353 | 3.0 | 8.0 | 0.00 | 0.00 | 0.00 | 66 | 1013.6 |
| 20260505184504 | 53 | 353 | 4.0 | 10.0 | 0.00 | 0.00 | 0.00 | 66 | 1013.3 |
| 20260505183003 | 54 | 354 | 3.0 | 8.0 | 0.00 | 0.00 | 0.00 | 67 | 1013.2 |
| 20260505181504 | 54 | 350 | 3.0 | 8.0 | 0.00 | 0.00 | 0.00 | 66 | 1013.2 |
| 20260505180004 | 54 | 352 | 3.0 | 8.0 | 0.00 | 0.00 | 0.00 | 63 | 1013.2 |
| 20260505174504 | 55 | 352 | 4.0 | 8.0 | 0.00 | 0.00 | 0.00 | 63 | 1013.2 |
| 20260505173003 | 55 | 352 | 4.0 | 8.0 | 0.00 | 0.00 | 0.00 | 62 | 1013.2 |
| 20260505171504 | 55 | 351 | 3.0 | 10.0 | 0.00 | 0.00 | 0.00 | 63 | 1013.3 |
| 20260505170004 | 55 | 352 | 3.0 | 10.0 | 0.00 | 0.00 | 0.00 | 64 | 1013.3 |
| 20260505164504 | 55 | 350 | 3.0 | 9.0 | 0.00 | 0.00 | 0.00 | 64 | 1013.3 |
| 20260505163003 | 55 | 352 | 4.0 | 11.0 | 0.00 | 0.00 | 0.00 | 63 | 1013.2 |
| 20260505161504 | 56 | 351 | 4.0 | 10.0 | 0.00 | 0.00 | 0.00 | 61 | 1013.2 |
| 20260505153004 | 56 | 352 | 4.0 | 11.0 | 0.00 | 0.00 | 0.00 | 61 | 1013.4 |
| 20260505151503 | 56 | 353 | 4.0 | 10.0 | 0.00 | 0.00 | 0.00 | 61 | 1013.4 |
| 20260505123003 | 59 | 342 | 3.0 | 11.0 | 0.00 | 0.00 | 0.00 | 54 | 1013.5 |
| 20260505121504 | 60 | 348 | 5.0 | 10.0 | 0.00 | 0.00 | 0.00 | 54 | 1013.6 |
| 20260505120005 | 58 | 351 | 4.0 | 9.0 | 0.00 | 0.00 | 0.00 | 56 | 1013.7 |
| 20260505114503 | 60 | 352 | 4.0 | 11.0 | 0.00 | 0.00 | 0.00 | 54 | 1013.6 |
| 20260505113003 | 58 | 353 | 4.0 | 11.0 | 0.00 | 0.00 | 0.00 | 55 | 1013.7 |
| 20260505111503 | 57 | 346 | 4.0 | 8.0 | 0.00 | 0.00 | 0.00 | 58 | 1013.8 |
| 20260505100005 | 56 | 352 | 3.0 | 7.0 | 0.00 | 0.00 | 0.00 | 63 | 1014.2 |
| 20260505093004 | 57 | 357 | 4.0 | 9.0 | 0.00 | 0.00 | 0.00 | 63 | 1014.3 |
| 20260505091504 | 56 | 351 | 3.0 | 11.0 | 0.00 | 0.00 | 0.00 | 65 | 1014.2 |
| 20260505084503 | 56 | 353 | 4.0 | 11.0 | 0.00 | 0.00 | 0.00 | 67 | 1014.4 |
| 20260505081504 | 53 | 355 | 3.0 | 9.0 | 0.00 | 0.00 | 0.00 | 75 | 1014.6 |
| 20260505080005 | 51 | 353 | 2.0 | 8.0 | 0.00 | 0.00 | 0.00 | 79 | 1014.6 |
| 20260505074504 | 49 | 346 | 3.0 | 8.0 | 0.00 | 0.00 | 0.00 | 80 | 1014.6 |
| 20260505073004 | 49 | 354 | 4.0 | 10.0 | 0.00 | 0.00 | 0.00 | 83 | 1014.6 |
| 20260505070005 | 48 | 352 | 4.0 | 9.0 | 0.00 | 0.00 | 0.00 | 84 | 1014.6 |
| 20260505064503 | 49 | 354 | 3.0 | 9.0 | 0.00 | 0.00 | 0.00 | 83 | 1014.7 |
| 20260505063004 | 49 | 355 | 2.0 | 7.0 | 0.00 | 0.00 | 0.00 | 83 | 1014.8 |
| 20260505061503 | 49 | 354 | 3.0 | 8.0 | 0.00 | 0.00 | 0.00 | 83 | 1014.6 |
| 20260505060005 | 47 | 349 | 2.0 | 8.0 | 0.00 | 0.00 | 0.00 | 86 | 1014.6 |
| 20260505054503 | 46 | 349 | 2.0 | 5.0 | 0.00 | 0.00 | 0.00 | 88 | 1014.5 |
| 20260505051504 | 45 | 351 | 2.0 | 5.0 | 0.00 | 0.00 | 0.00 | 88 | 1014.5 |